Airfield :
LOGIN :

Register | Disclaimer

   EN    FR    IT 

 










Legend :    VFR   Marginal VFR   IFR   Intensive IFR   Very Intensive IFR
Visi :
Ceiling :
>= 8 km
>= 3000ft
5 to 8 km
1000 to 3000 ft
1500m to 5 km
500 to 1000 ft
800 to 1500m
200 to 500 ft
< 800m
< 200 ft
Symbols :   Thunderstorms  Fog  Heavy snow  Heavy precipitations  Wind > 20 kt
SIGMETs :     Misc.  Thunderstorms  Icing  Turbulence  Mountain Waves  Volcanic Ashes







- Airport Elevation : 231 ft
- IATA code : WTN


EGXW - RAF Waddington

CURRENT METAR :
  • 152150Z 23016KT CAVOK 20/14 Q1011 BLU

EXPIRED METARs :
  • 152050Z 22016KT 9999 FEW038 BKN110 20/13 Q1012 BLU
  • 151950Z 22013KT 9999 BKN038 21/13 Q1012 BLU

TAF TAF EGXW
Valid from the 15 at 21:00 until the 16 at 15:00 UTC


151917Z 1521/1615 22015KT 9999 SCT035
TEMPO 1602/1611 5000 RA
PROB30
TEMPO 1602/1605 3000 +RA BKN012
PROB30
TEMPO 1608/1610 3000 +RA BKN008
BECMG 1609/1611 25010KT
No reported NOTAMs for that airfield.



MET'MAP, your aeronautical weather chart ! - Copyright ORBIFLY December 2007 - Disclaimer

ORBIFLY MET'MAP TEAM :

Programming & Development : Alexandra Zaïnal
Concept & Development : Baudouin d'Aumeries
Co-Development & Prog : Marc-Olivier Méhu
Technical & hardware support : Manuel Goepfert

Contact : metmap@orbifly.com




SOURCES & CREDITS :

   NOAA